User: anonymous   Login
Location: eljas
(40.1958°N, 6.8661°W)
Time: 15:36:54
(UTC+02:00)
Language:

Okean O Rocket - Orbit

View from above orbital plane
View from above orbital plane
View from above satellite
View from above satellite

Ground track
Ground track

The orbit data is extracted from the following two-line orbital elements,

1 25861U 99039B   15184.88085172  .00000104  00000-0  21562-4 0  9995
2 25861 098.0021 145.0101 0014717 220.1691 192.2862 14.78154948860248
Epoch (UTC): 03 July 2015 21:08:25
Eccentricity: 0.0014717
inclination: 98.0021°
perigee height: 625 km
apogee height: 645 km
right ascension of ascending node: 145.0101°
argument of perigee: 220.1691°
revolutions per day: 14.78154948
mean anomaly at epoch: 192.2862°
orbit number at epoch: 86024

The dashed part of the orbit path shows where the satellite is in the earth's shadow,  

DLR